• In Hungary
  • List of Countries
  • For 7 days
  • Water Temperature
  • Satellite Maps
  • Weather Map
  • News
  • Weather Widgets
  • user-avatar
    Login

    Hourly Weather Sloboda-Yaryshivs'ka

    Today, 22 October, Monday

    Time Temperature Precipitation Wind Pressure Humidity
    00:00 +8°C° 0 mm 3 mps 753 mmHg 78%
    01:00 +7°C° 0 mm 3 mps 753 mmHg 79%
    02:00 +6°C° 0 mm 2 mps 753 mmHg 81%
    03:00 +6°C° 0 mm 2 mps 753 mmHg 81%
    04:00 +6°C° 0 mm 2 mps 753 mmHg 82%
    05:00 +5°C° 0 mm 2 mps 753 mmHg 82%
    06:00 +6°C° 0 mm 2 mps 753 mmHg 80%
    07:00 +6°C° 0 mm 2 mps 754 mmHg 77%
    08:00 +6°C° 0 mm 2 mps 754 mmHg 74%
    09:00 +8°C° 0 mm 2 mps 753 mmHg 66%
    10:00 +10°C° 0 mm 2 mps 753 mmHg 59%
    11:00 +12°C° 0 mm 2 mps 753 mmHg 51%
    12:00 +13°C° 0 mm 2 mps 753 mmHg 49%
    13:00 +14°C° 0 mm 2 mps 752 mmHg 46%
    14:00 +14°C° 0 mm 2 mps 752 mmHg 44%
    15:00 +13°C° 0 mm 2 mps 751 mmHg 47%
    16:00 +13°C° 0 mm 2 mps 751 mmHg 50%
    17:00 +12°C° 0 mm 2 mps 751 mmHg 53%
    18:00 +11°C° 0 mm 1 mps 751 mmHg 56%
    19:00 +10°C° 0 mm 1 mps 751 mmHg 59%
    20:00 +9°C° 0 mm 1 mps 751 mmHg 62%
    21:00 +9°C° 0 mm 1 mps 751 mmHg 64%
    22:00 +9°C° 0 mm 1 mps 751 mmHg 66%
    23:00 +8°C° 0 mm 1 mps 751 mmHg 68%

    Tomorrow, 23 October, Tuesday

    Time Temperature Precipitation Wind Pressure Humidity
    00:00 +8°C° 0 mm 1 mps 750 mmHg 70%
    01:00 +6°C° 0 mm 2 mps 750 mmHg 71%
    02:00 +6°C° 0 mm 2 mps 750 mmHg 73%
    03:00 +6°C° 0 mm 2 mps 750 mmHg 75%
    04:00 +5°C° 0 mm 2 mps 749 mmHg 77%
    05:00 +5°C° 0 mm 2 mps 749 mmHg 78%
    06:00 +4°C° 0 mm 3 mps 749 mmHg 76%
    07:00 +5°C° 0 mm 3 mps 749 mmHg 75%
    08:00 +5°C° 0 mm 3 mps 748 mmHg 73%
    09:00 +7°C° 0.1 mm 4 mps 748 mmHg 72%
    10:00 +8°C° 0.1 mm 5 mps 748 mmHg 70%
    11:00 +9°C° 0.1 mm 5 mps 748 mmHg 69%
    12:00 +9°C° 0 mm 5 mps 747 mmHg 68%
    13:00 +10°C° 0 mm 5 mps 746 mmHg 67%
    14:00 +10°C° 0 mm 5 mps 746 mmHg 66%
    15:00 +11°C° 0 mm 4 mps 745 mmHg 67%
    16:00 +10°C° 0 mm 3 mps 744 mmHg 67%
    17:00 +10°C° 0 mm 2 mps 743 mmHg 68%
    18:00 +10°C° 0.2 mm 2 mps 743 mmHg 71%
    19:00 +9°C° 0.2 mm 2 mps 742 mmHg 73%
    20:00 +9°C° 0.2 mm 2 mps 741 mmHg 76%
    21:00 +9°C° 0.5 mm 3 mps 740 mmHg 76%
    22:00 +8°C° 0.5 mm 4 mps 739 mmHg 77%
    23:00 +8°C° 0.5 mm 4 mps 738 mmHg 78%

    Day after tomorrow, 24 October, Wednesday

    Time Temperature Precipitation Wind Pressure Humidity
    00:00 +8°C° 0 mm 5 mps 737 mmHg 76%
    01:00 +8°C° 0 mm 5 mps 736 mmHg 73%
    02:00 +8°C° 0 mm 5 mps 735 mmHg 71%
    03:00 +8°C° 0.1 mm 5 mps 734 mmHg 70%
    04:00 +8°C° 0.1 mm 5 mps 733 mmHg 70%
    05:00 +8°C° 0.1 mm 6 mps 732 mmHg 69%
    06:00 +8°C° 1 mm 5 mps 731 mmHg 70%
    07:00 +9°C° 1 mm 5 mps 730 mmHg 70%
    08:00 +9°C° 1 mm 5 mps 729 mmHg 71%
    09:00 +8°C° 1.7 mm 6 mps 729 mmHg 70%
    10:00 +8°C° 1.7 mm 7 mps 728 mmHg 69%
    11:00 +7°C° 1.7 mm 8 mps 728 mmHg 68%
    12:00 +7°C° 0.1 mm 9 mps 729 mmHg 64%
    13:00 +6°C° 0.1 mm 10 mps 729 mmHg 59%
    14:00 +6°C° 0.1 mm 11 mps 729 mmHg 54%
    15:00 +6°C° 0.2 mm 11 mps 730 mmHg 57%
    16:00 +4°C° 0.2 mm 12 mps 730 mmHg 61%
    17:00 +3°C° 0.2 mm 12 mps 731 mmHg 64%
    18:00 +3°C° 0.2 mm 12 mps 731 mmHg 65%
    19:00 +3°C° 0.2 mm 12 mps 731 mmHg 66%
    20:00 +3°C° 0.2 mm 11 mps 731 mmHg 67%
    21:00 +3°C° 0.1 mm 11 mps 732 mmHg 67%
    22:00 +3°C° 0.1 mm 12 mps 732 mmHg 67%
    23:00 +3°C° 0.1 mm 12 mps 732 mmHg 67%

    25 October, Thursday

    Time Temperature Precipitation Wind Pressure Humidity
    00:00 +3°C° 0.3 mm 11 mps 733 mmHg 69%
    01:00 +3°C° 0.3 mm 11 mps 733 mmHg 71%
    02:00 +3°C° 0.3 mm 11 mps 733 mmHg 73%
    03:00 +3°C° 0.4 mm 11 mps 734 mmHg 73%
    04:00 +3°C° 0.4 mm 11 mps 734 mmHg 73%
    05:00 +3°C° 0.4 mm 11 mps 734 mmHg 73%
    06:00 +3°C° 0.2 mm 11 mps 735 mmHg 72%
    07:00 +3°C° 0.2 mm 11 mps 736 mmHg 72%
    08:00 +3°C° 0.2 mm 11 mps 736 mmHg 71%
    09:00 +3°C° 0 mm 11 mps 737 mmHg 68%
    10:00 +3°C° 0 mm 10 mps 737 mmHg 65%
    11:00 +5°C° 0 mm 10 mps 738 mmHg 62%
    12:00 +5°C° 0 mm 9 mps 738 mmHg 60%
    13:00 +5°C° 0 mm 9 mps 737 mmHg 58%
    14:00 +6°C° 0 mm 9 mps 737 mmHg 56%
    15:00 +5°C° 0.4 mm 8 mps 737 mmHg 61%
    16:00 +4°C° 0.4 mm 7 mps 737 mmHg 66%
    17:00 +3°C° 0.4 mm 6 mps 736 mmHg 70%
    18:00 +4°C° 0.8 mm 6 mps 736 mmHg 73%
    19:00 +5°C° 0.8 mm 7 mps 735 mmHg 76%
    20:00 +6°C° 0.8 mm 8 mps 735 mmHg 79%
    21:00 +6°C° 0.2 mm 8 mps 735 mmHg 78%
    22:00 +6°C° 0.2 mm 9 mps 735 mmHg 77%
    23:00 +6°C° 0.2 mm 9 mps 735 mmHg 76%

    26 October, Friday

    Time Temperature Precipitation Wind Pressure Humidity
    00:00 +6°C° 0 mm 9 mps 736 mmHg 76%
    01:00 +6°C° 0 mm 9 mps 737 mmHg 76%
    02:00 +5°C° 0 mm 9 mps 738 mmHg 76%
    03:00 +5°C° 0 mm 8 mps 739 mmHg 78%
    04:00 +5°C° 0 mm 7 mps 739 mmHg 79%
    05:00 +5°C° 0 mm 7 mps 740 mmHg 81%
    06:00 +5°C° 0.1 mm 6 mps 741 mmHg 80%
    07:00 +5°C° 0.1 mm 6 mps 741 mmHg 80%
    08:00 +5°C° 0.1 mm 6 mps 742 mmHg 79%
    09:00 +7°C° 0.1 mm 6 mps 742 mmHg 75%
    10:00 +8°C° 0.1 mm 6 mps 743 mmHg 72%
    11:00 +8°C° 0.1 mm 7 mps 743 mmHg 68%
    12:00 +9°C° 0 mm 6 mps 743 mmHg 66%
    13:00 +9°C° 0 mm 6 mps 743 mmHg 64%
    14:00 +9°C° 0 mm 6 mps 744 mmHg 61%
    15:00 +9°C° 0 mm 5 mps 744 mmHg 64%
    16:00 +8°C° 0 mm 4 mps 744 mmHg 66%
    17:00 +9°C° 0 mm 2 mps 745 mmHg 69%
    18:00 +8°C° 0 mm 2 mps 745 mmHg 71%
    19:00 +9°C° 0 mm 1 mps 745 mmHg 73%
    20:00 +8°C° 0 mm 1 mps 746 mmHg 75%
    21:00 +8°C° 0 mm 1 mps 746 mmHg 76%
    22:00 +7°C° 0 mm 2 mps 746 mmHg 77%
    23:00 +6°C° 0 mm 2 mps 746 mmHg 77%

    27 October, Saturday

    Time Temperature Precipitation Wind Pressure Humidity
    00:00 +6°C° 0 mm 2 mps 746 mmHg 78%
    01:00 +5°C° 0 mm 3 mps 746 mmHg 78%
    02:00 +5°C° 0 mm 3 mps 746 mmHg 78%
    03:00 +5°C° 0 mm 3 mps 745 mmHg 79%
    04:00 +5°C° 0 mm 3 mps 745 mmHg 79%
    05:00 +4°C° 0 mm 3 mps 745 mmHg 79%
    06:00 +5°C° 0 mm 3 mps 744 mmHg 77%
    07:00 +5°C° 0 mm 4 mps 744 mmHg 76%
    08:00 +5°C° 0 mm 4 mps 744 mmHg 75%
    09:00 +7°C° 0 mm 4 mps 744 mmHg 71%
    10:00 +8°C° 0 mm 4 mps 743 mmHg 68%
    11:00 +10°C° 0 mm 4 mps 743 mmHg 64%
    12:00 +11°C° 0.1 mm 4 mps 743 mmHg 63%
    13:00 +12°C° 0.1 mm 4 mps 742 mmHg 61%
    14:00 +13°C° 0.1 mm 3 mps 742 mmHg 60%
    15:00 +13°C° 0 mm 4 mps 742 mmHg 59%
    16:00 +13°C° 0 mm 4 mps 742 mmHg 59%
    17:00 +13°C° 0 mm 4 mps 741 mmHg 59%
    18:00 +13°C° 0 mm 4 mps 741 mmHg 59%
    19:00 +13°C° 0 mm 4 mps 742 mmHg 60%
    20:00 +12°C° 0 mm 4 mps 742 mmHg 61%
    21:00 +12°C° 0 mm 3 mps 742 mmHg 62%
    22:00 +12°C° 0 mm 3 mps 742 mmHg 62%
    23:00 +12°C° 0 mm 3 mps 742 mmHg 62%

    28 October, Sunday

    Time Temperature Precipitation Wind Pressure Humidity
    00:00 +11°C° 0 mm 3 mps 741 mmHg 63%
    01:00 +11°C° 0 mm 3 mps 741 mmHg 64%
    02:00 +11°C° 0 mm 3 mps 741 mmHg 65%
    03:00 +11°C° 0 mm 3 mps 741 mmHg 66%
    04:00 +11°C° 0 mm 3 mps 741 mmHg 66%
    05:00 +11°C° 0 mm 4 mps 741 mmHg 67%
    06:00 +11°C° 0 mm 4 mps 741 mmHg 65%
    07:00 +11°C° 0 mm 4 mps 741 mmHg 64%
    08:00 +12°C° 0 mm 5 mps 741 mmHg 62%
    09:00 +14°C° 0 mm 5 mps 741 mmHg 57%
    10:00 +16°C° 0 mm 5 mps 742 mmHg 52%
    11:00 +19°C° 0 mm 5 mps 742 mmHg 47%
    12:00 +20°C° 0 mm 5 mps 742 mmHg 44%
    13:00 +22°C° 0 mm 5 mps 742 mmHg 42%
    14:00 +23°C° 0 mm 5 mps 742 mmHg 40%
    15:00 +22°C° 0 mm 4 mps 742 mmHg 44%
    16:00 +20°C° 0 mm 3 mps 742 mmHg 49%
    17:00 +19°C° 0 mm 3 mps 742 mmHg 53%
    18:00 +18°C° 0 mm 3 mps 743 mmHg 54%
    19:00 +18°C° 0 mm 2 mps 743 mmHg 56%
    20:00 +18°C° 0 mm 2 mps 743 mmHg 57%
    21:00 +17°C° 0 mm 2 mps 743 mmHg 58%
    22:00 +18°C° 0 mm 1 mps 744 mmHg 60%
    23:00 +18°C° 0 mm 1 mps 744 mmHg 62%
    Show more